Left ArrowRight Arrow

32.19382, -80.73816

Hourly Observations for October 17, 2019

Temp ( °F °C ) Dew Point ( °F °C ) Humidity (%) Winds ( mph kmh ) Pressure ( in mb ) Visibility ( mi km ) Precip ( " mm )
12:15 am 00:15 Clear 68 20 52 11 56 56 NW 9 15 29.89 1012 10 16 N/A
12:35 am 00:35 Clear 66 19 50 10 56 56 VRB 8 13 29.88 1012 10 16 N/A
12:55 am 00:55 Clear 66 19 48 9 52 52 VRB 6 9 29.88 1012 10 16 N/A
1:15 am 01:15 Clear 66 19 48 9 52 52 WNW 9 15 29.88 1012 10 16 N/A
1:35 am 01:35 Clear 64 18 48 9 56 56 VRB 8 13 29.89 1012 10 16 N/A
1:55 am 01:55 Clear 64 18 48 9 56 56 VRB 3 6 29.89 1012 10 16 N/A
2:15 am 02:15 Clear 63 17 46 8 56 56 VRB 7 11 29.89 1012 10 16 N/A
2:35 am 02:35 Clear 63 17 46 8 56 56 VRB 6 9 29.88 1012 10 16 N/A
2:55 am 02:55 Clear 61 16 46 8 59 59 VRB 6 9 29.89 1012 10 16 N/A
3:35 am 03:35 Clear 61 16 45 7 55 55 VRB 7 11 29.88 1012 10 16 N/A
3:55 am 03:55 Clear 61 16 45 7 55 55 VRB 6 9 29.88 1012 10 16 N/A
4:15 am 04:15 Clear 61 16 45 7 55 55 NW 8 13 29.88 1012 10 16 N/A
4:55 am 04:55 Clear 59 15 45 7 59 59 VRB 7 11 29.88 1012 10 16 N/A
5:15 am 05:15 Clear 59 15 45 7 59 59 VRB 7 11 29.88 1012 10 16 N/A
5:35 am 05:35 Clear 57 14 45 7 63 63 VRB 7 11 29.88 1012 10 16 N/A
6:50 am 06:50 Clear 55 13 50 10 82 82 W 5 7 29.92 1013 10 16 N/A
7:50 am 07:50 Sunny 55 13 46 8 72 72 W 5 7 29.92 1013 10 16 N/A
8:50 am 08:50 Sunny 55 13 46 8 72 72 W 5 7 29.94 1014 10 16 N/A
9:50 am 09:50 Sunny 61 16 50 10 68 68 N 9 15 29.97 1015 10 16 N/A
10:50 am 10:50 Sunny 61 16 48 9 63 63 N 9 15 29.97 1015 10 16 N/A
11:50 am 11:50 Sunny 64 18 46 8 52 52 NNW 3 6 29.96 1015 10 16 N/A
12:50 pm 12:50 Sunny 66 19 46 8 49 49 NNE 9 15 29.95 1014 10 16 N/A
1:50 pm 13:50 Sunny 68 20 46 8 46 46 NNE 9 15 29.92 1013 10 16 N/A
2:50 pm 14:50 Sunny 68 20 48 9 49 49 N 5 7 29.90 1013 10 16 N/A
3:50 pm 15:50 Sunny 68 20 48 9 49 49 NW 5 7 29.89 1012 10 16 N/A
4:50 pm 16:50 Sunny 68 20 52 11 56 56 ESE 5 7 29.88 1012 10 16 N/A
5:50 pm 17:50 Sunny 66 19 52 11 60 60 S 5 7 29.89 1012 10 16 N/A
6:50 pm 18:50 Clear 63 17 54 12 73 73 S 5 7 29.90 1013 10 16 N/A
7:50 pm 19:50 Clear 59 15 55 13 88 88 Calm 29.91 1013 10 16 N/A
8:50 pm 20:50 Clear 57 14 55 13 94 94 Calm 29.92 1013 10 16 N/A
8:55 pm 20:55 Clear 57 14 55 13 94 94 Calm 29.92 1013 10 16 N/A
9:15 pm 21:15 Clear 57 14 55 13 94 94 Calm 29.92 1013 10 16 N/A
9:35 pm 21:35 Clear 57 14 55 13 94 94 Calm 29.92 1013 10 16 N/A
9:55 pm 21:55 Clear 57 14 55 13 94 94 Calm 29.93 1014 10 16 N/A
10:15 pm 22:15 Clear 57 14 55 13 94 94 Calm 29.93 1014 10 16 N/A
10:35 pm 22:35 Clear 57 14 54 12 88 88 Calm 29.93 1014 10 16 N/A
10:55 pm 22:55 Clear 57 14 54 12 88 88 Calm 29.94 1014 10 16 N/A
11:15 pm 23:15 Clear 57 14 54 12 88 88 Calm 29.94 1014 10 16 N/A
11:35 pm 23:35 Clear 55 13 54 12 94 94 Calm 29.94 1014 10 16 N/A
11:55 pm 23:55 Clear 55 13 54 12 94 94 Calm 29.94 1014 10 16 N/A

Powered by Vaisala Xweather